Time,TemperatureF,DewpointF,PressureIn,WindDirection,WindDirectionDegrees,WindSpeedMPH,WindSpeedGustMPH,Humidity,HourlyPrecipIn,Conditions,Clouds,dailyrainin,SoftwareType,DateUTC
2013-07-14 02:36:00,0.0,0.0,0.00,South,180,2.9,2.9,0,0.00,,,-99.99,Homeseer,2013-07-14 06:36:00,
2013-07-14 02:46:00,0.0,0.0,0.00,SSE,157,3.1,3.4,0,0.00,,,-99.99,Homeseer,2013-07-14 06:46:00,
2013-07-14 02:56:00,0.0,0.0,0.00,South,180,1.3,2.9,0,0.00,,,-99.99,Homeseer,2013-07-14 06:56:00,
2013-07-14 03:06:00,0.0,0.0,0.00,WNW,297,2.5,2.5,0,0.00,,,-99.99,Homeseer,2013-07-14 07:06:00,
2013-07-14 03:16:00,0.0,0.0,0.00,NNE,22,3.1,6.3,0,0.00,,,-99.99,Homeseer,2013-07-14 07:16:00,
2013-07-14 03:26:00,0.0,0.0,0.00,North,0,3.8,3.8,0,0.00,,,-99.99,Homeseer,2013-07-14 07:26:00,
2013-07-14 03:36:00,0.0,0.0,0.00,SSE,157,3.4,0.0,0,0.00,,,-99.99,Homeseer,2013-07-14 07:36:00,
2013-07-14 03:46:00,0.0,0.0,0.00,ESE,112,2.7,2.7,0,0.00,,,-99.99,Homeseer,2013-07-14 07:46:00,
2013-07-14 03:56:00,0.0,0.0,0.00,South,180,3.1,8.1,0,0.00,,,-99.99,Homeseer,2013-07-14 07:56:00,
2013-07-14 04:06:00,0.0,0.0,0.00,South,180,1.3,2.5,0,0.00,,,-99.99,Homeseer,2013-07-14 08:06:00,
2013-07-14 04:16:00,0.0,0.0,0.00,East,90,1.1,0.0,0,0.00,,,-99.99,Homeseer,2013-07-14 08:16:00,
2013-07-14 04:26:00,0.0,0.0,0.00,North,0,0.0,0.0,0,0.00,,,-99.99,Homeseer,2013-07-14 08:26:00,
2013-07-14 04:36:00,0.0,0.0,0.00,WSW,247,0.0,1.6,0,0.00,,,-99.99,Homeseer,2013-07-14 08:36:00,
2013-07-14 04:46:00,0.0,0.0,0.00,WNW,297,0.0,1.6,0,0.00,,,-99.99,Homeseer,2013-07-14 08:46:00,
2013-07-14 04:56:00,0.0,0.0,0.00,WNW,297,0.9,0.0,0,0.00,,,-99.99,Homeseer,2013-07-14 08:56:00,
2013-07-14 05:06:00,0.0,0.0,0.00,South,180,0.0,0.0,0,0.00,,,-99.99,Homeseer,2013-07-14 09:06:00,
2013-07-14 05:16:00,0.0,0.0,0.00,ENE,67,0.0,0.0,0,0.00,,,-99.99,Homeseer,2013-07-14 09:16:00,
2013-07-14 05:26:00,0.0,0.0,0.00,North,0,1.3,0.0,0,0.00,,,-99.99,Homeseer,2013-07-14 09:26:00,
2013-07-14 05:36:00,0.0,0.0,0.00,WSW,247,1.1,2.9,0,0.00,,,-99.99,Homeseer,2013-07-14 09:36:00,
2013-07-14 05:46:00,0.0,0.0,0.00,West,270,0.9,1.1,0,0.00,,,-99.99,Homeseer,2013-07-14 09:46:00,
2013-07-14 05:56:00,0.0,0.0,0.00,North,0,2.7,2.7,0,0.00,,,-99.99,Homeseer,2013-07-14 09:56:00,
2013-07-14 06:06:00,0.0,0.0,0.00,North,0,1.3,0.0,0,0.00,,,-99.99,Homeseer,2013-07-14 10:06:00,
2013-07-14 06:16:00,0.0,0.0,0.00,North,0,1.3,2.2,0,0.00,,,-99.99,Homeseer,2013-07-14 10:16:00,
2013-07-14 06:26:00,0.0,0.0,0.00,SSE,157,2.0,2.0,0,0.00,,,-99.99,Homeseer,2013-07-14 10:26:00,
2013-07-14 06:36:00,0.0,0.0,0.00,ENE,67,1.6,2.0,0,0.00,,,-99.99,Homeseer,2013-07-14 10:36:00,
2013-07-14 06:46:00,0.0,0.0,0.00,SW,225,1.1,1.1,0,0.00,,,-99.99,Homeseer,2013-07-14 10:46:00,
2013-07-14 06:56:00,0.0,0.0,0.00,North,0,0.9,2.0,0,0.00,,,-99.99,Homeseer,2013-07-14 10:56:00,
2013-07-14 07:06:00,0.0,0.0,0.00,East,90,2.2,0.0,0,0.00,,,-99.99,Homeseer,2013-07-14 11:06:00,
2013-07-14 07:16:00,0.0,0.0,0.00,East,90,2.2,0.0,0,0.00,,,-99.99,Homeseer,2013-07-14 11:16:00,
2013-07-14 07:26:00,0.0,0.0,0.00,East,90,2.2,0.0,0,0.00,,,-99.99,Homeseer,2013-07-14 11:26:00,
2013-07-14 07:36:00,0.0,0.0,0.00,East,90,2.2,0.0,0,0.00,,,-99.99,Homeseer,2013-07-14 11:36:00,
2013-07-14 07:46:00,0.0,0.0,0.00,East,90,2.2,0.0,0,0.00,,,-99.99,Homeseer,2013-07-14 11:46:00,
2013-07-14 07:56:00,0.0,0.0,0.00,East,90,2.2,0.0,0,0.00,,,-99.99,Homeseer,2013-07-14 11:56:00,
2013-07-14 08:06:00,0.0,0.0,0.00,ESE,112,0.0,0.0,0,0.00,,,-99.99,Homeseer,2013-07-14 12:06:00,
2013-07-14 08:16:00,0.0,0.0,0.00,West,270,0.0,0.0,0,0.00,,,-99.99,Homeseer,2013-07-14 12:16:00,
2013-07-14 08:26:00,0.0,0.0,0.00,SW,225,0.0,0.0,0,0.00,,,-99.99,Homeseer,2013-07-14 12:26:00,
2013-07-14 08:36:00,0.0,0.0,0.00,West,270,0.0,0.0,0,0.00,,,-99.99,Homeseer,2013-07-14 12:36:00,
2013-07-14 08:46:00,0.0,0.0,0.00,West,270,0.0,0.0,0,0.00,,,-99.99,Homeseer,2013-07-14 12:46:00,
2013-07-14 08:56:00,0.0,0.0,0.00,WNW,297,0.0,0.0,0,0.00,,,-99.99,Homeseer,2013-07-14 12:56:00,
2013-07-14 09:06:00,0.0,0.0,0.00,WNW,297,1.1,1.3,0,0.00,,,-99.99,Homeseer,2013-07-14 13:06:00,
2013-07-14 09:16:00,0.0,0.0,0.00,WSW,247,0.0,0.0,0,0.00,,,-99.99,Homeseer,2013-07-14 13:16:00,
2013-07-14 09:26:00,0.0,0.0,0.00,WSW,247,0.0,0.0,0,0.00,,,-99.99,Homeseer,2013-07-14 13:26:00,
2013-07-14 09:36:00,0.0,0.0,0.00,SSE,157,0.9,2.2,0,0.00,,,-99.99,Homeseer,2013-07-14 13:36:00,
2013-07-14 09:46:00,0.0,0.0,0.00,WNW,297,2.2,0.0,0,0.00,,,-99.99,Homeseer,2013-07-14 13:46:00,
2013-07-14 09:56:00,0.0,0.0,0.00,South,180,2.0,0.0,0,0.00,,,-99.99,Homeseer,2013-07-14 13:56:00,
2013-07-14 10:06:00,0.0,0.0,0.00,SSE,157,2.9,2.9,0,0.00,,,-99.99,Homeseer,2013-07-14 14:06:00,
2013-07-14 10:16:00,0.0,0.0,0.00,North,0,2.0,2.0,0,0.00,,,-99.99,Homeseer,2013-07-14 14:16:00,
2013-07-14 10:26:00,0.0,0.0,0.00,South,180,1.6,0.0,0,0.00,,,-99.99,Homeseer,2013-07-14 14:26:00,
2013-07-14 10:36:00,0.0,0.0,0.00,South,180,3.1,8.7,0,0.00,,,-99.99,Homeseer,2013-07-14 14:36:00,
2013-07-14 10:46:00,0.0,0.0,0.00,SW,225,1.3,2.7,0,0.00,,,-99.99,Homeseer,2013-07-14 14:46:00,
2013-07-14 10:56:00,0.0,0.0,0.00,South,180,3.8,3.8,0,0.00,,,-99.99,Homeseer,2013-07-14 14:56:00,
2013-07-14 11:06:00,0.0,0.0,0.00,South,180,2.9,2.9,0,0.00,,,-99.99,Homeseer,2013-07-14 15:06:00,
2013-07-14 11:16:00,0.0,0.0,0.00,North,0,1.1,7.6,0,0.00,,,-99.99,Homeseer,2013-07-14 15:16:00,
2013-07-14 11:26:00,0.0,0.0,0.00,North,0,4.3,5.6,0,0.00,,,-99.99,Homeseer,2013-07-14 15:26:00,
2013-07-14 11:36:00,0.0,0.0,0.00,South,180,2.9,3.8,0,0.00,,,-99.99,Homeseer,2013-07-14 15:36:00,
2013-07-14 11:46:00,0.0,0.0,0.00,North,0,5.4,5.4,0,0.00,,,-99.99,Homeseer,2013-07-14 15:46:00,
2013-07-14 11:56:00,0.0,0.0,0.00,South,180,2.7,2.7,0,0.00,,,-99.99,Homeseer,2013-07-14 15:56:00,
2013-07-14 12:06:00,0.0,0.0,0.00,North,0,2.0,2.0,0,0.00,,,-99.99,Homeseer,2013-07-14 16:06:00,
2013-07-14 12:16:00,0.0,0.0,0.00,South,180,1.1,0.0,0,0.00,,,-99.99,Homeseer,2013-07-14 16:16:00,
2013-07-14 12:26:00,0.0,0.0,0.00,SSE,157,1.3,3.4,0,0.00,,,-99.99,Homeseer,2013-07-14 16:26:00,
2013-07-14 12:36:00,0.0,0.0,0.00,North,0,2.5,3.8,0,0.00,,,-99.99,Homeseer,2013-07-14 16:36:00,
2013-07-14 12:46:00,0.0,0.0,0.00,South,180,4.0,4.0,0,0.00,,,-99.99,Homeseer,2013-07-14 16:46:00,
2013-07-14 12:56:00,0.0,0.0,0.00,South,180,4.0,4.0,0,0.00,,,-99.99,Homeseer,2013-07-14 16:56:00,
2013-07-14 13:06:00,0.0,0.0,0.00,SSE,157,2.7,3.4,0,0.00,,,-99.99,Homeseer,2013-07-14 17:06:00,
2013-07-14 13:16:00,0.0,0.0,0.00,North,0,4.5,6.5,0,0.00,,,-99.99,Homeseer,2013-07-14 17:16:00,
2013-07-14 13:26:00,0.0,0.0,0.00,SE,135,2.7,4.9,0,0.00,,,-99.99,Homeseer,2013-07-14 17:26:00,
2013-07-14 13:36:00,0.0,0.0,0.00,SSE,157,2.9,4.3,0,0.00,,,-99.99,Homeseer,2013-07-14 17:36:00,
2013-07-14 13:46:00,0.0,0.0,0.00,SSE,157,3.8,3.8,0,0.00,,,-99.99,Homeseer,2013-07-14 17:46:00,
2013-07-14 13:56:00,0.0,0.0,0.00,SE,135,4.7,4.7,0,0.00,,,-99.99,Homeseer,2013-07-14 17:56:00,
2013-07-14 14:06:00,0.0,0.0,0.00,SSE,157,4.3,6.0,0,0.00,,,-99.99,Homeseer,2013-07-14 18:06:00,
2013-07-14 14:16:00,0.0,0.0,0.00,ESE,112,2.5,6.3,0,0.00,,,-99.99,Homeseer,2013-07-14 18:16:00,
2013-07-14 14:26:00,0.0,0.0,0.00,SSE,157,5.6,5.6,0,0.00,,,-99.99,Homeseer,2013-07-14 18:26:00,
2013-07-14 14:36:00,88.2,65.1,0.00,SE,135,4.7,5.4,38,0.00,,,-99.99,Homeseer,2013-07-14 18:36:00,
2013-07-14 14:46:00,88.2,65.1,0.00,North,0,6.0,6.0,38,0.00,,,-99.99,Homeseer,2013-07-14 18:46:00,
2013-07-14 14:56:00,88.2,65.1,0.00,SSE,157,6.7,6.7,38,0.00,,,-99.99,Homeseer,2013-07-14 18:56:00,
2013-07-14 15:06:00,88.2,65.1,0.00,South,180,4.5,4.5,38,0.00,,,-99.99,Homeseer,2013-07-14 19:06:00,
2013-07-14 15:16:00,88.2,65.1,0.00,ESE,112,6.0,6.0,38,0.00,,,-99.99,Homeseer,2013-07-14 19:16:00,
2013-07-14 15:26:00,87.3,63.8,0.00,SE,135,5.6,5.6,37,0.00,,,-99.99,Homeseer,2013-07-14 19:26:00,
2013-07-14 15:36:00,87.4,63.3,0.00,SE,135,3.8,3.8,36,0.00,,,-99.99,Homeseer,2013-07-14 19:36:00,
2013-07-14 15:46:00,87.4,63.3,0.00,SE,135,3.1,5.6,36,0.00,,,-99.99,Homeseer,2013-07-14 19:46:00,
2013-07-14 15:56:00,86.9,63.4,0.00,SSE,157,4.9,4.9,37,0.00,,,-99.99,Homeseer,2013-07-14 19:56:00,
2013-07-14 16:06:00,86.9,63.4,0.00,SE,135,4.3,7.4,37,0.00,,,-99.99,Homeseer,2013-07-14 20:06:00,
2013-07-14 16:16:00,85.5,65.0,0.00,SE,135,6.3,8.5,42,0.00,,,-99.99,Homeseer,2013-07-14 20:16:00,
2013-07-14 16:26:00,85.3,64.3,0.00,SE,135,3.4,3.8,41,0.00,,,-99.99,Homeseer,2013-07-14 20:26:00,
2013-07-14 16:36:00,85.3,64.3,0.00,ESE,112,4.0,6.0,41,0.00,,,-99.99,Homeseer,2013-07-14 20:36:00,
2013-07-14 16:46:00,85.3,64.3,0.00,SE,135,3.8,4.0,41,0.00,,,-99.99,Homeseer,2013-07-14 20:46:00,
2013-07-14 16:56:00,83.7,68.6,0.00,ESE,112,6.3,6.3,53,0.00,,,-99.99,Homeseer,2013-07-14 20:56:00,
2013-07-14 17:06:00,83.7,68.6,0.00,SSE,157,4.7,9.0,53,0.00,,,-99.99,Homeseer,2013-07-14 21:06:00,
2013-07-14 17:16:00,83.7,68.6,0.00,SE,135,2.7,3.4,53,0.00,,,-99.99,Homeseer,2013-07-14 21:16:00,
2013-07-14 17:26:00,83.7,68.6,0.00,SE,135,0.0,0.0,53,0.00,,,-99.99,Homeseer,2013-07-14 21:26:00,
2013-07-14 17:36:00,83.7,68.6,0.00,South,180,2.0,4.3,53,0.00,,,-99.99,Homeseer,2013-07-14 21:36:00,
2013-07-14 17:46:00,83.7,68.6,0.00,South,180,3.4,0.0,53,0.00,,,-99.99,Homeseer,2013-07-14 21:46:00,
2013-07-14 17:56:00,82.6,67.2,0.00,East,90,1.3,0.0,52,0.00,,,-99.99,Homeseer,2013-07-14 21:56:00,
2013-07-14 18:06:00,82.6,67.2,0.00,ESE,112,0.0,2.7,52,0.00,,,-99.99,Homeseer,2013-07-14 22:06:00,
2013-07-14 18:16:00,82.6,67.2,0.00,ESE,112,0.0,3.4,52,0.00,,,-99.99,Homeseer,2013-07-14 22:16:00,
2013-07-14 18:26:00,82.6,67.2,0.00,ESE,112,0.0,0.0,52,0.00,,,-99.99,Homeseer,2013-07-14 22:26:00,
2013-07-14 18:36:00,81.7,71.4,0.00,North,0,1.3,6.7,65,0.00,,,-99.99,Homeseer,2013-07-14 22:36:00,
2013-07-14 18:46:00,78.1,71.9,0.00,North,0,5.4,5.8,77,0.00,,,-99.99,Homeseer,2013-07-14 22:46:00,
2013-07-14 18:56:00,77.5,71.6,0.00,North,0,2.5,3.6,78,0.00,,,-99.99,Homeseer,2013-07-14 22:56:00,
2013-07-14 19:06:00,76.1,72.8,0.00,North,0,6.5,6.5,87,0.23,,,-99.99,Homeseer,2013-07-14 23:06:00,
2013-07-14 19:16:00,75.4,72.1,0.00,North,0,7.4,7.4,87,0.23,,,-99.99,Homeseer,2013-07-14 23:16:00,
2013-07-14 19:26:00,75.7,72.7,0.00,WNW,297,2.2,7.8,88,0.31,,,-99.99,Homeseer,2013-07-14 23:26:00,
2013-07-14 19:36:00,75.2,72.2,0.00,North,0,2.7,2.7,88,0.39,,,-99.99,Homeseer,2013-07-14 23:36:00,
2013-07-14 19:46:00,75.0,72.5,0.00,WNW,297,3.6,4.3,90,0.43,,,-99.99,Homeseer,2013-07-14 23:46:00,
2013-07-14 19:56:00,75.0,72.5,0.00,North,0,3.4,3.6,90,1.37,,,-99.99,Homeseer,2013-07-14 23:56:00,
2013-07-14 20:06:00,73.9,73.2,0.00,North,0,6.0,6.0,97,1.49,,,-99.99,Homeseer,2013-07-15 00:06:00,
2013-07-14 20:16:00,73.9,73.2,0.00,North,0,4.7,4.7,97,0.90,,,-99.99,Homeseer,2013-07-15 00:16:00,
2013-07-14 20:26:00,73.8,73.3,0.00,North,0,6.5,7.2,98,0.39,,,-99.99,Homeseer,2013-07-15 00:26:00,
2013-07-14 20:36:00,73.8,73.3,0.00,NW,315,5.6,5.6,98,0.59,,,-99.99,Homeseer,2013-07-15 00:36:00,
2013-07-14 20:46:00,73.0,72.5,0.00,NNE,22,0.9,2.5,98,0.59,,,-99.99,Homeseer,2013-07-15 00:46:00,
2013-07-14 20:56:00,73.0,72.5,0.00,NNE,22,0.9,0.0,98,0.59,,,-99.99,Homeseer,2013-07-15 00:56:00,
2013-07-14 21:06:00,72.9,72.4,0.00,ENE,67,0.0,0.0,98,0.59,,,-99.99,Homeseer,2013-07-15 01:06:00,
2013-07-14 21:16:00,73.2,72.7,0.00,North,0,2.2,2.2,98,0.11,,,-99.99,Homeseer,2013-07-15 01:16:00,
2013-07-14 21:26:00,73.6,73.1,0.00,WSW,247,0.0,0.0,98,0.11,,,-99.99,Homeseer,2013-07-15 01:26:00,
2013-07-14 21:36:00,73.6,73.1,0.00,WNW,297,1.3,0.0,98,0.11,,,-99.99,Homeseer,2013-07-15 01:36:00,
2013-07-14 21:46:00,73.6,73.1,0.00,North,0,0.0,0.0,98,0.11,,,-99.99,Homeseer,2013-07-15 01:46:00,
2013-07-14 21:56:00,73.8,73.3,0.00,North,0,0.0,0.0,98,0.11,,,-99.99,Homeseer,2013-07-15 01:56:00,
2013-07-14 22:06:00,73.8,73.3,0.00,North,0,0.0,0.0,98,0.11,,,-99.99,Homeseer,2013-07-15 02:06:00,
2013-07-14 22:16:00,73.9,73.4,0.00,North,0,0.0,0.0,98,0.11,,,-99.99,Homeseer,2013-07-15 02:16:00,
2013-07-14 22:26:00,73.9,73.4,0.00,North,0,0.0,0.0,98,0.11,,,-99.99,Homeseer,2013-07-15 02:26:00,
2013-07-14 22:36:00,73.8,73.3,0.00,ENE,67,0.0,0.0,98,0.11,,,-99.99,Homeseer,2013-07-15 02:36:00,
2013-07-14 22:46:00,73.8,73.3,0.00,ENE,67,0.0,0.0,98,0.11,,,-99.99,Homeseer,2013-07-15 02:46:00,
2013-07-14 22:56:00,73.6,73.1,0.00,ENE,67,0.0,0.0,98,0.11,,,-99.99,Homeseer,2013-07-15 02:56:00,
2013-07-14 23:06:00,73.6,73.1,0.00,ENE,67,0.0,0.0,98,0.11,,,-99.99,Homeseer,2013-07-15 03:06:00,
2013-07-14 23:16:00,73.6,73.1,0.00,NNE,22,0.0,0.9,98,0.00,,,-99.99,Homeseer,2013-07-15 03:16:00,
2013-07-14 23:26:00,73.6,73.1,0.00,North,0,0.0,0.0,98,0.00,,,-99.99,Homeseer,2013-07-15 03:26:00,
2013-07-14 23:36:00,74.1,73.6,0.00,ESE,112,3.8,6.3,98,0.00,,,-99.99,Homeseer,2013-07-15 03:36:00,
2013-07-14 23:46:00,74.8,74.3,0.00,ESE,112,3.6,5.4,98,0.00,,,-99.99,Homeseer,2013-07-15 03:46:00,
2013-07-14 23:56:00,75.0,74.0,0.00,ESE,112,4.3,5.4,96,0.00,,,-99.99,Homeseer,2013-07-15 03:56:00,